Terminal Aerodrome Forecast
Issued by NWS

Current Version | Previous Version | Graphics & Text | Print | Product List | Glossary On
Versions: 1 2 3 4 5 6 7 8 9 10 11 12 13 14 15 16 17 18 19 20 21 22 23 24 25 26 27 28 29 30 31 32 33 34 35 36 37 38 39
000
FTUS41 KRNK 251018 AAD
TAFLWB
TAF AMD
KLWB 251018Z 2510/2606 00000KT P6SM SCT001 SCT030
      TEMPO 2510/2512 2SM BR
     FM251330 00000KT 6SM BR SCT006 SCT030
     FM251500 11003KT P6SM SCT020
     FM251800 11004KT P6SM SKC=

USA.gov is the U.S. government's official web portal to all federal, state and local government web resources and services.